Wilmington, DE

12:03 PM EST on November 23, 2017 (GMT -0500)
New Castle County

Weather History for KILG - December, 2013

Change the Weather History Date:

Saturday, December 21, 2013

  Actual Average Record
Temperature  
Mean Temperature 55 °F 35 °F  
Max Temperature 68 °F 43 °F 68 °F (2013)
Min Temperature 42 °F 27 °F -1 °F (1942)
Degree Days  
Heating Degree Days 10 30  
Month to date heating degree days 585 568  
Since 1 July heating degree days 1506 1466  
Cooling Degree Days 0 0  
Month to date cooling degree days 0 0  
Year to date cooling degree days 1241 1145  
Growing Degree Days 8 (Base 50)    
Moisture  
Dew Point 50 °F    
Average Humidity 74    
Maximum Humidity 92    
Minimum Humidity 55    
Precipitation  
Precipitation 0.00 in 0.11 in 1.95 in (1905)
Month to date precipitation 3.22 2.48  
Year to date precipitation 46.35 42.08  
Snow  
Snow 0.00 in 0.10 in 3.30 in (1962)
Month to date snowfall 11.9 2.2  
Since 1 July snowfall 11.9 2.6  
Snow Depth 0.00 in    
Sea Level Pressure  
Sea Level Pressure 29.98 in    
Wind  
Wind Speed 10 mph (SSW)    
Max Wind Speed 20 mph    
Max Gust Speed 25 mph    
Visibility 10 miles    
Events      
T = Trace of Precipitation, MM = Missing Value Source: NWS Daily Summary

Daily Weather History Graph

Daily Weather History Graph

Search for Another Location

Airport or City:

Trip Planner

Search our weather history database for the weather conditions in past years. The results will help you decide how hot, cold, wet, or windy it might be!

Date:

Astronomy

Dec. 21, 2013 Rise Set
Actual Time 7:19 AM EST 4:41 PM EST
Civil Twilight 6:49 AM EST 5:11 PM EST
Nautical Twilight 6:15 AM EST 5:45 PM EST
Astronomical Twilight 5:42 AM EST 6:18 PM EST
Moon 8:55 PM EST (12/21) 9:45 AM EST (12/21)
Length of Visible Light 10h 22m
Length of Day
9h 21m
Waning Gibbous, 84% of the Moon is Illuminated
Dec 21
Waning Gibbous
Dec 25
Last Quarter
Jan 1
New
Jan 7
First Quarter
Jan 15
Full

Hourly Weather History & Observations

Time (EST) Temp. Dew Point Humidity Pressure Visibility Wind Dir Wind Speed Gust Speed Precip Events Conditions
12:51 AM 48.0 °F 45.0 °F 89% 30.01 in 10.0 mi SSW 5.8 mph - N/A   Clear
1:51 AM 53.1 °F 46.9 °F 80% 30.00 in 10.0 mi SSW 10.4 mph - N/A   Clear
2:51 AM 53.1 °F 46.0 °F 77% 30.02 in 10.0 mi WSW 5.8 mph - N/A   Mostly Cloudy
3:51 AM 54.0 °F 46.0 °F 75% 30.00 in 10.0 mi SSW 5.8 mph - N/A   Overcast
4:51 AM 54.0 °F 45.0 °F 72% 30.01 in 10.0 mi SW 5.8 mph - N/A   Mostly Cloudy
5:51 AM 52.0 °F 45.0 °F 77% 30.01 in 10.0 mi South 4.6 mph - N/A   Clear
6:51 AM 52.0 °F 45.0 °F 77% 30.01 in 10.0 mi South 4.6 mph - N/A   Mostly Cloudy
7:51 AM 52.0 °F 46.0 °F 80% 30.02 in 10.0 mi South 6.9 mph - N/A   Overcast
8:51 AM 51.1 °F 46.0 °F 83% 30.02 in - North - - N/A   Unknown
9:51 AM - - N/A% 30.02 in - North - - N/A   Unknown
10:51 AM - - N/A% 30.00 in - North - - N/A   Unknown
11:51 AM 64.9 °F 51.1 °F 61% 29.98 in - SSW 13.8 mph - N/A   Unknown
12:51 PM 66.9 °F 52.0 °F 59% 29.95 in 10.0 mi SW 12.7 mph - N/A   Clear
1:51 PM 68.0 °F 52.0 °F 56% 29.93 in 10.0 mi SSW 17.3 mph 23.0 mph N/A   Clear
2:51 PM 68.0 °F 52.0 °F 56% 29.91 in 10.0 mi SSW 13.8 mph 19.6 mph N/A   Clear
3:51 PM 66.9 °F 52.0 °F 59% 29.94 in 10.0 mi SSW 12.7 mph - N/A   Clear
4:51 PM 64.9 °F 52.0 °F 63% 29.95 in 10.0 mi South 10.4 mph - N/A   Clear
5:51 PM 64.0 °F 53.1 °F 67% 29.95 in 10.0 mi South 11.5 mph - N/A   Unknown
6:51 PM 57.9 °F 50.0 °F 75% 29.96 in 10.0 mi South 10.4 mph - N/A   Partly Cloudy
7:51 PM 59.0 °F 52.0 °F 78% 29.96 in 10.0 mi South 5.8 mph - N/A   Clear
8:51 PM 64.0 °F 55.0 °F 73% 29.96 in 10.0 mi SSW 10.4 mph 19.6 mph N/A   Mostly Cloudy
9:51 PM 64.0 °F 55.0 °F 73% 29.96 in 10.0 mi SSW 15.0 mph 21.9 mph N/A   Mostly Cloudy
10:51 PM 63.0 °F 55.9 °F 78% 29.96 in 10.0 mi SSW 11.5 mph - N/A   Overcast
11:51 PM 63.0 °F 57.0 °F 81% 29.94 in 10.0 mi SSW 9.2 mph 19.6 mph N/A   Partly Cloudy